Regional Weather Roundup
Issued by NWS

Home | Current Version | Previous Version | Graphics & Text | Print | Product List | Glossary Off
Versions: 1 2 3 4 5 6 7 8 9 10 11 12 13 14 15 16 17 18 19 20 21 22 23 24 25 26 27 28 29 30 31 32 33 34 35 36 37 38 39 40 41 42 43 44 45 46 47 48 49 50

000
ASUS43 KLSX 211107
RWRMO

WEATHER SUMMARY FOR MISSOURI
NATIONAL WEATHER SERVICE SPRINGFIELD MO
500 AM CST SUN JAN 21 2018

NOTE: "FAIR" INDICATES FEW OR NO CLOUDS BELOW 12,000 FEET WITH NO
       SIGNIFICANT WEATHER AND/OR OBSTRUCTIONS TO VISIBILITY.
       CURRENT SKY AND/OR WEATHER CONDITIONS ARE NOT AVAILABLE FOR
       CHILLICOTHE AND FARMINGTON.

MOZ001>031-035>038-043-044-053-054-211200-
...NORTHERN AND WESTERN MISSOURI...

CITY           SKY/WX    TMP DP  RH WIND       PRES   REMARKS
KANSAS CTY INT CLOUDY    48  46  93 S10       29.79F
KANSAS C DTWN  CLOUDY    45  42  89 NE6       29.80F
LEE`S SUMMIT   CLOUDY    50  49  96 SE10      29.81F
ST JOSEPH      CLOUDY    44  44 100 SE5       29.80S FOG
CHILLICOTHE      N/A     47  43  86 SE3       29.85F
KIRKSVILLE     CLOUDY    45  44  97 S6        29.88S

$$
MOZ066>068-077>081-088>096-101>105-211200-
...SOUTHWEST MISSOURI...

CITY           SKY/WX    TMP DP  RH WIND       PRES   REMARKS
SPRINGFIELD    CLEAR     50  49  96 S13       29.87S
JOPLIN         CLEAR     55  53  93 S16       29.84S

$$
MOZ032>034-039>042-045>050-055>058-069>072-211200-
...CENTRAL MISSOURI...

CITY           SKY/WX    TMP DP  RH WIND       PRES   REMARKS
COLUMBIA       CLOUDY    48  47  96 SE8       29.90S
JEFFERSON CITY CLOUDY    35  34  96 CALM      29.91S
ROLLA          CLEAR     48  48 100 S9        29.91F
SEDALIA        CLOUDY    50  48  93 SE9       29.87S
WHITEMAN AFB   CLOUDY    49  46  89 S7        29.81F
WARRENSBURG    CLOUDY    48  45  87 SE6       29.84S
OSAGE BEACH    CLEAR     46  46 100 SE5       29.90S FOG

$$
MOZ051-052-059>065-211200-
...EAST CENTRAL MISSOURI...

CITY           SKY/WX    TMP DP  RH WIND       PRES   REMARKS
ST LOUIS INTL  MOCLDY    47  46  97 S6        29.96S
SPIRIT OF STL  CLOUDY    39  38  96 CALM      29.95S
ST CHARLES     CLOUDY    41  40  96 E7        29.96R FOG

$$
MOZ072>076-082>087-097>100-106>115-211200-
...SOUTH CENTRAL AND SOUTHEAST MISSOURI...

CITY           SKY/WX    TMP DP  RH WIND       PRES   REMARKS
CAPE GIRARDEAU CLOUDY    51  47  86 S15       30.04S
FARMINGTON     CLOUDY    52  51  97 S9        29.98S
POPLAR BLUFF   CLOUDY    51  50  96 S7        30.02S
WEST PLAINS    FOG       52  51  97 S7        29.97S VSB 1/4

$$



USA.gov is the U.S. government's official web portal to all federal, state and local government web resources and services.